Snowfall_Accumulation
0.1 0.1 0.0 0.1 0.0 0.0 0.0 0.0 0.0 0.0 0.0 0.0 0.0 0.0 0.0 0.0 0.0 0.0 0.0 0.0 0.0 0.0
0.1 0.1 0.1 0.0 0.0 0.0 0.0 0.0 0.0 0.0 0.0 0.0 0.0 0.0 0.0 0.0 0.0 0.0 0.0 0.0 0.0 0.0
0.4 0.1 0.1 0.1 0.0 0.0 0.0 0.0 0.0 0.0 0.0 0.0 0.0 0.0 0.0 0.0 0.0 0.0 0.0 0.0 0.0 0.0
0.9 0.6 0.2 0.4 0.1 0.0 0.0 0.0 0.0 0.0 0.0 0.0 0.0 0.0 0.0 0.0 0.0 0.0 0.0 0.0 0.0 0.0
1.4 1.1 1.4 0.4 0.5 0.1 0.1 0.0 0.0 0.0 0.0 0.0 0.0 0.0 0.0 0.0 0.0 0.0 0.0 0.0 0.0 0.0
2.3 2.2 1.7 1.5 0.5 0.8 0.3 0.1 0.0 0.0 0.0 0.0 0.0 0.0 0.0 0.0 0.0 0.0 0.0 0.0 0.0 0.0
2.1 2.7 2.2 1.5 1.4 0.8 1.5 0.8 0.2 0.1 0.0 0.0 0.0 0.0 0.0 0.0 0.0 0.0 0.0 0.0 0.0 0.0
0.2 1.4 2.2 1.7 1.7 1.2 0.9 1.7 0.5 0.3 0.1 0.0 0.0 0.0 0.0 0.0 0.0 0.0 0.0 0.0 0.0 0.0
0.0 0.1 0.9 1.1 2.0 1.9 1.6 1.0 2.1 0.5 0.9 0.4 0.1 nan nan 0.0 0.0 0.0 0.0 0.0 0.0 0.0
0.0 0.0 0.0 0.4 0.6 2.3 2.4 2.0 1.1 2.0 1.0 1.0 0.3 nan nan nan 0.0 0.0 0.0 0.0 0.0 0.0
0.0 0.0 0.0 0.1 0.3 0.8 2.2 3.1 1.9 1.2 1.7 1.6 0.2 nan nan nan 0.0 0.0 0.0 0.0 0.0 0.0
0.1 0.1 0.0 0.0 0.1 0.3 1.1 1.3 2.6 1.2 1.4 2.2 1.3 nan nan 0.1 0.1 0.0 0.0 0.0 0.0 0.0
0.1 0.2 0.1 0.0 0.1 0.2 0.4 0.9 1.3 1.5 1.3 nan 1.4 nan nan nan 0.1 0.0 0.0 0.0 0.0 nan
0.1 0.2 0.1 0.1 0.1 0.2 0.3 0.6 1.0 1.0 0.9 1.7 1.5 0.8 nan nan 0.1 0.1 0.1 0.0 0.0 0.0
Water_Equivalent
0.01 0.01 0.01 0.01 0.01 0.00 0.00 0.00 0.00 0.00 0.00 0.00 0.00 0.00 0.00 0.00 0.00 0.00 0.00 0.00 0.00 0.00
0.01 0.02 0.02 0.00 0.00 0.00 0.00 0.00 0.00 0.00 0.00 0.00 0.00 0.00 0.00 0.00 0.00 0.00 0.00 0.00 0.00 0.00
0.08 0.03 0.03 0.01 0.01 0.00 0.00 0.00 0.00 0.00 0.00 0.00 0.00 0.00 0.00 0.00 0.00 0.00 0.00 0.00 0.00 0.00
0.18 0.14 0.05 0.14 0.03 0.01 0.00 0.00 0.00 0.00 0.00 0.00 0.00 0.00 0.00 0.00 0.00 0.00 0.00 0.00 0.00 0.00
0.35 0.22 0.31 0.09 0.18 0.04 0.02 0.00 0.00 0.00 0.00 0.00 0.00 0.00 0.00 0.00 0.00 0.00 0.00 0.00 0.00 0.00
0.51 0.46 0.31 0.32 0.11 0.27 0.09 0.02 0.01 0.00 0.00 0.00 0.00 0.00 0.00 0.00 0.00 0.00 0.00 0.00 0.00 0.00
0.50 0.52 0.42 0.32 0.29 0.18 0.51 0.25 0.06 0.03 0.01 0.00 0.00 0.00 0.00 0.00 0.00 0.00 0.00 0.00 0.00 0.00
0.04 0.33 0.41 0.30 0.32 0.23 0.17 0.56 0.13 0.10 0.05 0.01 0.00 0.00 0.00 0.00 0.00 0.00 0.00 0.00 0.00 0.00
0.00 0.02 0.16 0.19 0.36 0.31 0.26 0.20 0.62 0.15 0.28 0.12 0.02 nan nan 0.00 0.00 0.00 0.00 0.00 0.00 0.00
0.00 0.00 0.01 0.07 0.10 0.39 0.36 0.31 0.22 0.55 0.30 0.32 0.09 nan nan nan 0.00 0.00 0.00 0.00 0.00 0.00
0.00 0.00 0.00 0.01 0.04 0.11 0.32 0.44 0.28 0.24 0.46 0.43 0.06 nan nan nan 0.00 0.00 0.00 0.00 0.00 0.00
0.01 0.01 0.00 0.01 0.01 0.04 0.14 0.18 0.37 0.19 0.25 0.45 0.38 nan nan 0.01 0.01 0.00 0.00 0.00 0.00 0.00
0.01 0.03 0.02 0.01 0.01 0.02 0.06 0.13 0.23 0.23 0.22 nan 0.26 nan nan nan 0.02 0.01 0.00 0.00 0.00 nan
0.02 0.03 0.01 0.02 0.01 0.03 0.06 0.09 0.17 0.16 0.16 0.29 0.28 0.15 nan nan 0.02 0.02 0.02 0.01 0.00 0.00
SL_Ratio
5.0 5.2 5.0 4.7 5.0 nan nan nan nan nan nan nan nan nan nan nan nan nan nan nan nan nan
4.3 5.0 5.1 5.0 nan 5.0 nan nan nan nan nan nan nan nan nan nan nan nan nan nan nan nan
4.4 4.4 4.3 5.0 5.4 5.0 nan nan nan nan nan nan nan nan nan 5.0 nan nan nan nan nan nan
4.9 4.1 4.4 3.2 4.2 4.7 5.0 nan nan nan nan nan nan nan nan nan 5.0 nan nan nan nan nan
4.0 4.9 4.5 4.5 3.0 3.5 4.4 5.0 nan nan nan nan nan nan nan nan nan 2.5 5.0 nan nan nan
4.5 4.7 5.4 4.6 4.3 2.9 3.6 4.1 3.9 5.0 nan nan nan nan nan nan nan 3.3 3.3 3.0 nan nan
4.2 5.2 5.3 4.7 4.9 4.5 2.9 3.3 3.1 3.0 4.6 nan nan nan nan nan nan nan nan nan 2.5 nan
5.1 4.4 5.3 5.7 5.3 5.3 5.1 3.0 3.6 3.1 2.9 4.2 nan nan nan nan nan nan nan nan nan nan
nan 5.4 5.3 5.9 5.7 6.2 6.1 5.2 3.3 3.5 3.0 3.4 4.1 nan nan nan 0.0 nan nan nan nan nan
nan 5.0 5.8 6.0 6.2 5.8 6.6 6.4 5.1 3.6 3.4 3.0 4.0 nan nan nan nan nan nan nan nan nan
8.0 8.0 5.0 6.1 6.7 7.1 6.7 6.9 6.8 4.8 3.8 3.7 3.8 nan nan nan 5.0 7.5 nan nan nan nan
8.2 8.2 7.5 7.5 7.4 6.9 7.6 7.3 7.0 6.3 5.5 5.0 3.4 nan nan 5.5 6.2 5.0 nan nan nan nan
7.6 8.2 8.4 7.5 7.7 7.2 7.3 7.4 5.6 6.4 6.0 nan 5.3 nan nan nan 5.7 5.6 nan nan nan nan
7.7 7.9 7.8 6.3 5.3 5.7 4.9 6.0 6.1 6.4 6.0 5.8 5.4 5.4 nan nan 5.0 5.4 3.9 3.2 2.5 nan